Terug naar catalogus

NAHUEL I2

ANIK C2

ActiefCommunicatieGEO
NORAD 14133·PAYLOAD·🇦🇷 Argentina

Gelanceerd Jun 18, 1983 vanaf Cape Canaveral Space Force Station

Loading…

TLE

VersSource: Space-Track

Epoch: Sep 12, 2026, 16:38 UTC

1 14133U 83059B   26255.69367924 -.00000082  00000-0  00000-0 0  9994
2 14133  12.8232 335.6356 0035867 125.8951 234.4590  0.99120681 47018

Volg NAHUEL I2 in realtime met AllMySat

Download on the App Store